Location: French Creek State Gamelands
(40.1750°N, 75.7969°W)
Time: 23:10:56
(UTC-05:00)

ISS - All Passes

Search period start: 10 December 2017 00:00
Search period end: 20 December 2017 00:00
Orbit: 402 x 407 km, 51.6° (Epoch: 11 December)

Date Brightness Start Highest point End Pass type
(mag) Time Alt. Az. Time Alt. Az. Time Alt. Az.
10 Dec - 12:48:28 10° SSW 12:51:35 41° SE 12:54:42 10° ENE daylight
10 Dec - 14:25:19 10° W 14:28:09 26° NNW 14:31:00 10° NE daylight
10 Dec - 16:04:12 10° NNW 16:05:30 12° N 16:06:49 10° NNE daylight
10 Dec - 17:41:07 10° NNW 17:43:05 15° NNE 17:45:03 10° NE visible
10 Dec - 19:16:55 10° NW 19:20:09 53° NNE 19:23:22 10° ESE visible
10 Dec - 20:54:13 10° W 20:56:20 16° SW 20:58:26 10° S night (unlit)
11 Dec - 11:56:55 10° S 11:59:29 21° SE 12:02:04 10° E daylight
11 Dec - 13:32:38 10° WSW 13:35:48 41° NNW 13:38:57 10° NE daylight
11 Dec - 15:11:11 10° NW 15:12:57 14° NNW 15:14:43 10° NNE daylight
11 Dec - 16:49:03 10° NNW 16:50:32 12° N 16:52:01 10° NE daylight
11 Dec - 18:24:49 10° NW 18:27:49 31° NNE 18:30:48 10° E visible
11 Dec - 20:01:19 10° WNW 20:04:16 30° SW 20:07:12 10° SSE visible
12 Dec - 11:06:29 10° SE 11:07:28 11° SE 11:08:26 10° ESE daylight
12 Dec - 12:40:13 10° WSW 12:43:30 77° NW 12:46:48 10° NE daylight
12 Dec - 14:18:10 10° WNW 14:20:25 17° NNW 14:22:41 10° NNE daylight
12 Dec - 15:56:47 10° NNW 15:57:57 11° N 15:59:07 10° NNE daylight
12 Dec - 17:32:47 10° NNW 17:35:24 21° NNE 17:38:01 10° ENE visible
12 Dec - 19:08:52 10° WNW 19:12:07 62° SW 19:15:21 10° SE visible
13 Dec - 11:48:03 10° SW 11:51:16 53° SE 11:54:29 10° ENE daylight
13 Dec - 13:25:14 10° W 13:27:56 23° NNW 13:30:39 10° NNE daylight
13 Dec - 15:04:08 10° NNW 15:05:21 12° N 15:06:34 10° NNE daylight
13 Dec - 16:40:45 10° NNW 16:42:54 16° NNE 16:45:02 10° ENE daylight
13 Dec - 18:16:36 10° NW 18:19:52 67° NE 18:23:08 10° ESE visible
13 Dec - 19:54:26 10° W 19:55:58 13° SW 19:57:29 10° SSW visible
14 Dec - 10:56:18 10° SSW 10:59:07 27° SE 11:01:56 10° ENE daylight
14 Dec - 12:32:27 10° W 12:35:30 35° NNW 12:38:34 10° NE daylight
14 Dec - 14:11:09 10° NW 14:12:44 13° N 14:14:20 10° NNE daylight
14 Dec - 15:48:41 10° NNW 15:50:20 13° N 15:51:59 10° NE daylight
14 Dec - 17:24:26 10° NW 17:27:32 37° NNE 17:30:37 10° E visible
14 Dec - 19:01:10 10° WNW 19:03:53 24° SW 19:06:36 10° S visible
15 Dec - 10:05:14 10° SSE 10:07:01 14° SE 10:08:50 10° E daylight
15 Dec - 11:39:54 10° WSW 11:43:09 61° NW 11:46:25 10° NE daylight
15 Dec - 13:18:04 10° NW 13:20:09 16° NNW 13:22:14 10° NNE daylight
15 Dec - 14:56:28 10° NNW 14:57:43 12° N 14:58:57 10° NNE daylight
15 Dec - 16:32:20 10° NNW 16:35:06 24° NNE 16:37:51 10° E daylight
15 Dec - 18:08:32 10° WNW 18:11:44 48° SW 18:14:53 10° SSE visible
16 Dec - 10:47:36 10° SW 10:50:51 69° SE 10:54:08 10° ENE daylight
16 Dec - 12:25:03 10° WNW 12:27:36 20° NNW 12:30:10 10° NNE daylight
16 Dec - 14:03:55 10° NNW 14:05:04 11° N 14:06:13 10° NNE daylight
16 Dec - 15:40:16 10° NNW 15:42:35 18° NNE 15:44:54 10° ENE daylight
16 Dec - 17:16:11 10° NW 17:19:29 84° NE 17:22:45 10° SE visible
17 Dec - 09:55:39 10° SSW 09:58:38 33° SE 10:01:38 10° ENE daylight
17 Dec - 11:32:11 10° W 11:35:07 29° NNW 11:38:04 10° NE daylight
17 Dec - 13:10:59 10° NNW 13:12:25 12° N 13:13:51 10° NNE daylight
17 Dec - 14:48:10 10° NNW 14:50:00 14° NNE 14:51:49 10° NE daylight
17 Dec - 16:23:57 10° NW 16:27:08 44° NNE 16:30:17 10° ESE daylight
17 Dec - 18:00:56 10° W 18:03:23 19° SW 18:05:48 10° S visible
18 Dec - 09:04:13 10° S 09:06:29 18° SE 09:08:45 10° E daylight
18 Dec - 10:39:30 10° WSW 10:42:41 49° NNW 10:45:55 10° NE daylight
18 Dec - 12:17:52 10° NW 12:19:47 14° NNW 12:21:41 10° NNE daylight
18 Dec - 13:55:59 10° NNW 13:57:21 12° N 13:58:43 10° NNE daylight
18 Dec - 15:31:48 10° NW 15:34:41 27° NNE 15:37:34 10° E daylight
18 Dec - 17:08:08 10° WNW 17:11:13 37° SW 17:14:16 10° SSE visible
19 Dec - 09:47:03 10° SW 09:50:20 87° SE 09:53:37 10° NE daylight
19 Dec - 11:24:47 10° WNW 11:27:10 18° NNW 11:29:35 10° NNE daylight
19 Dec - 13:03:33 10° NNW 13:04:40 11° N 13:05:48 10° NNE daylight
19 Dec - 14:39:40 10° NNW 14:42:09 19° NNE 14:44:38 10° ENE daylight
19 Dec - 16:15:39 10° NW 16:18:57 77° SW 16:22:13 10° SE daylight
